timestamp,surface_pressure_avg,surface_temp_avg,battery_voltage,lat,long
2022-12-28 00:09:01+00:00,244.7531,2.7,12.33,47.84626,-54.09684
2022-12-28 00:19:00+00:00,253.0698,2.7,12.33,47.84626,-54.09684
2022-12-28 00:29:00+00:00,255.9581,2.7,12.33,47.84626,-54.09684
2022-12-28 00:39:00+00:00,256.8248,2.6,12.33,47.84626,-54.09684
2022-12-28 00:49:00+00:00,262.5614,2.79,12.33,47.84626,-54.09684
2022-12-28 00:59:00+00:00,268.1064,2.79,12.33,47.84626,-54.09684
2022-12-28 01:09:00+00:00,276.5897,2.57,12.33,47.84626,-54.09684
2022-12-28 01:19:01+00:00,284.2031,2.8,12.33,47.84626,-54.09684
2022-12-28 01:29:01+00:00,294.4113,2.9,12.33,47.84626,-54.09684
2022-12-28 01:39:01+00:00,300.7913,2.8,12.33,47.84626,-54.09684
2022-12-28 01:49:01+00:00,307.5447,2.91,12.33,47.84626,-54.09684
2022-12-28 01:59:01+00:00,309.963,3.1,12.33,47.84626,-54.09684
2022-12-28 02:09:01+00:00,313.9031,3.06,12.33,47.84626,-54.09684
2022-12-28 02:19:00+00:00,313.7897,3.06,12.33,47.84626,-54.09684
2022-12-28 02:29:00+00:00,319.038,3.1,12.33,47.84626,-54.09684
2022-12-28 02:39:00+00:00,320.9597,3.1,12.33,47.84626,-54.09684
2022-12-28 02:49:00+00:00,323.1096,3.1,12.33,47.84626,-54.09684
2022-12-28 02:59:00+00:00,329.0313,3.1,12.33,47.84626,-54.09684
2022-12-28 03:09:00+00:00,334.3547,3.04,12.33,47.84626,-54.09684
2022-12-28 03:19:00+00:00,337.9363,3.09,12.33,47.84626,-54.09684
2022-12-28 03:29:00+00:00,340.3629,3.12,12.33,47.84626,-54.09684
2022-12-28 03:39:00+00:00,343.1779,3.17,12.33,47.84626,-54.09684
2022-12-28 03:49:00+00:00,344.6863,3.2,12.33,47.84626,-54.09684
2022-12-28 03:59:00+00:00,340.2496,3.2,12.33,47.84626,-54.09684
2022-12-28 04:09:00+00:00,342.093,3.2,12.33,47.84626,-54.09684
2022-12-28 04:19:00+00:00,342.7479,3.2,12.33,47.84626,-54.09684
2022-12-28 04:29:00+00:00,339.2379,3.2,12.33,47.84626,-54.09684
2022-12-28 04:39:00+00:00,334.7947,3.21,12.33,47.84626,-54.09684
2022-12-28 04:49:00+00:00,338.9047,3.24,12.33,47.84626,-54.09684
2022-12-28 04:59:00+00:00,335.0546,3.22,12.33,47.84626,-54.09684
2022-12-28 05:09:00+00:00,326.4113,3.2,12.33,47.84626,-54.09684
2022-12-28 05:19:00+00:00,324.3013,3.2,12.33,47.84626,-54.09684
2022-12-28 05:29:00+00:00,322.558,3.2,12.33,47.84626,-54.09684
2022-12-28 05:39:00+00:00,306.1381,3.2,12.33,47.84626,-54.09684
2022-12-28 05:49:00+00:00,295.9847,3.2,12.33,47.84626,-54.09684
2022-12-28 05:59:00+00:00,292.8447,3.2,12.33,47.84626,-54.09684
2022-12-28 06:09:00+00:00,282.9098,3.1,12.33,47.84626,-54.09684
2022-12-28 06:19:00+00:00,272.6397,3.18,12.33,47.84626,-54.09684
2022-12-28 06:29:00+00:00,266.7864,3.2,12.33,47.84626,-54.09684
2022-12-28 06:39:00+00:00,254.5614,3.1,12.33,47.84626,-54.09684
2022-12-28 06:49:00+00:00,241.3681,3.1,12.33,47.84626,-54.09684
2022-12-28 06:59:00+00:00,235.9564,3.1,12.33,47.84626,-54.09684
2022-12-28 07:09:00+00:00,228.1698,3.1,12.33,47.84626,-54.09684
2022-12-28 07:19:00+00:00,216.5915,3.1,12.33,47.84626,-54.09684
2022-12-28 07:29:00+00:00,207.8031,3.1,12.33,47.84626,-54.09684
2022-12-28 07:39:00+00:00,203.8915,3.1,12.33,47.84626,-54.09684
2022-12-28 07:49:00+00:00,200.2782,3.17,12.33,47.84626,-54.09684
2022-12-28 07:59:00+00:00,192.0931,3.16,12.33,47.84626,-54.09684
2022-12-28 08:09:00+00:00,185.6765,3.1,12.33,47.84626,-54.09684
2022-12-28 08:19:00+00:00,181.7115,3.0,12.33,47.84626,-54.09684
2022-12-28 08:29:00+00:00,175.2132,3.0,12.33,47.84626,-54.09684
2022-12-28 08:39:00+00:00,171.2748,3.0,12.33,47.84626,-54.09684
2022-12-28 08:49:00+00:00,176.1915,3.04,12.33,47.84626,-54.09684
2022-12-28 08:59:00+00:00,178.4615,2.91,12.33,47.84626,-54.09684
2022-12-28 09:09:00+00:00,171.2948,2.4,12.33,47.84626,-54.09684
2022-12-28 09:19:00+00:00,175.3265,1.92,12.33,47.84626,-54.09684
2022-12-28 09:29:00+00:00,185.4148,2.31,12.33,47.84626,-54.09684
2022-12-28 09:39:00+00:00,183.8448,2.39,12.33,47.84626,-54.09684
2022-12-28 09:49:00+00:00,183.6815,2.48,12.33,47.84626,-54.09684
2022-12-28 09:59:00+00:00,189.2982,2.5,12.33,47.84626,-54.09684
2022-12-28 10:09:00+00:00,188.9765,2.6,12.33,47.84626,-54.09684
2022-12-28 10:19:00+00:00,185.8448,2.7,12.33,47.84626,-54.09684
2022-12-28 10:29:00+00:00,193.0698,2.69,12.33,47.84626,-54.09684
2022-12-28 10:39:00+00:00,200.1298,2.8,12.33,47.84626,-54.09684
2022-12-28 10:49:00+00:00,199.6581,2.85,12.33,47.84626,-54.09684
2022-12-28 10:59:00+00:00,204.6348,3.16,12.33,47.84626,-54.09684
2022-12-28 11:09:00+00:00,211.5464,3.1,12.33,47.84626,-54.09684
2022-12-28 11:19:00+00:00,213.9565,3.1,12.25,47.84626,-54.09684
2022-12-28 11:29:00+00:00,218.5181,3.19,12.25,47.84626,-54.09684
2022-12-28 11:39:00+00:00,225.3831,3.2,12.25,47.84626,-54.09684
2022-12-28 11:49:00+00:00,226.8948,3.2,12.25,47.84626,-54.09684
2022-12-28 11:59:00+00:00,227.6547,3.19,12.25,47.84626,-54.09684
2022-12-28 12:09:00+00:00,232.4481,3.19,12.25,47.84626,-54.09684
2022-12-28 12:19:00+00:00,236.6831,3.19,13.05,47.84626,-54.09684
2022-12-28 12:29:00+00:00,238.5381,3.19,13.05,47.84626,-54.09684
2022-12-28 12:39:00+00:00,243.6931,3.15,13.05,47.84626,-54.09684
2022-12-28 12:49:00+00:00,253.3597,3.17,13.05,47.84626,-54.09684
2022-12-28 12:59:00+00:00,260.6148,3.2,13.05,47.84626,-54.09684
2022-12-28 13:09:00+00:00,264.6364,3.2,13.05,47.84626,-54.09684
2022-12-28 13:19:00+00:00,275.123,3.2,13.44,47.84626,-54.09684
2022-12-28 13:29:00+00:00,287.7947,3.31,13.44,47.84626,-54.09684
2022-12-28 13:39:00+00:00,294.0814,3.4,13.44,47.84626,-54.09684
2022-12-28 13:49:00+00:00,304.0681,3.4,13.44,47.84626,-54.09684
2022-12-28 13:59:00+00:00,319.9946,3.34,13.44,47.84626,-54.09684
2022-12-28 14:09:00+00:00,329.9763,3.4,13.44,47.84626,-54.09684
2022-12-28 14:19:00+00:00,330.0314,3.48,13.44,47.84626,-54.09684
2022-12-28 14:29:00+00:00,339.1646,3.5,13.44,47.84626,-54.09684
2022-12-28 14:39:00+00:00,350.1063,3.6,13.44,47.84626,-54.09684
2022-12-28 14:49:00+00:00,352.4962,3.6,13.44,47.84626,-54.09684
2022-12-28 14:59:00+00:00,356.0713,3.6,13.44,47.84626,-54.09684
2022-12-28 15:09:00+00:00,368.9464,3.6,13.44,47.84626,-54.09684
2022-12-28 15:19:00+00:00,363.6712,3.5,13.53,47.84626,-54.09684
2022-12-28 15:29:00+00:00,360.4114,3.5,13.53,47.84626,-54.09684
2022-12-28 15:39:00+00:00,374.5213,3.5,13.53,47.84626,-54.09684
2022-12-28 15:49:00+00:00,374.3662,3.5,13.53,47.84626,-54.09684
2022-12-28 15:59:00+00:00,366.1345,3.5,13.53,47.84626,-54.09684
2022-12-28 16:09:00+00:00,370.5563,3.5,13.53,47.84626,-54.09684
2022-12-28 16:19:00+00:00,374.3895,3.5,13.44,47.84626,-54.09684
2022-12-28 16:29:00+00:00,366.5329,3.5,13.44,47.84626,-54.09684
2022-12-28 16:39:00+00:00,359.7296,3.5,13.44,47.84626,-54.09684
2022-12-28 16:49:00+00:00,365.1046,3.52,13.44,47.84626,-54.09684
2022-12-28 16:59:00+00:00,359.5196,3.55,13.44,47.84626,-54.09684
2022-12-28 17:09:00+00:00,347.7347,3.69,13.44,47.84626,-54.09684
2022-12-28 17:19:00+00:00,348.5547,3.69,13.37,47.84626,-54.09684
2022-12-28 17:29:00+00:00,349.3262,3.6,13.37,47.84626,-54.09684
2022-12-28 17:39:00+00:00,342.3446,3.69,13.37,47.84626,-54.09684
2022-12-28 17:49:00+00:00,329.4813,3.7,13.37,47.84626,-54.09684
2022-12-28 17:59:00+00:00,324.3179,3.6,13.37,47.84626,-54.09684
2022-12-28 18:09:00+00:00,318.0097,3.6,13.37,47.84626,-54.09684
2022-12-28 18:19:01+00:00,304.6031,3.6,13.21,47.84626,-54.09684
2022-12-28 18:29:01+00:00,299.2863,3.6,13.21,47.84626,-54.09684
2022-12-28 18:39:01+00:00,293.923,3.5,13.21,47.84626,-54.09684
2022-12-28 18:49:01+00:00,278.233,3.5,13.21,47.84626,-54.09684
2022-12-28 18:59:01+00:00,263.6314,3.47,13.21,47.84626,-54.09684
2022-12-28 19:09:01+00:00,259.1731,3.45,13.21,47.84626,-54.09684
2022-12-28 19:19:00+00:00,254.3698,3.43,12.81,47.84626,-54.09684
2022-12-28 19:29:00+00:00,248.4747,3.4,12.81,47.84626,-54.09684
2022-12-28 19:39:00+00:00,244.5214,3.4,12.81,47.84626,-54.09684
2022-12-28 19:49:00+00:00,236.2464,3.4,12.81,47.84626,-54.09684
2022-12-28 19:59:00+00:00,225.8814,3.4,12.81,47.84626,-54.09684
2022-12-28 20:09:00+00:00,224.8581,3.4,12.81,47.84626,-54.09684
2022-12-28 20:19:00+00:00,226.4814,3.4,12.65,47.84626,-54.09684
2022-12-28 20:29:00+00:00,218.7431,3.4,12.65,47.84626,-54.09684
2022-12-28 20:39:00+00:00,211.9497,3.4,12.65,47.84626,-54.09684
2022-12-28 20:49:00+00:00,212.8797,3.4,12.65,47.84626,-54.09684
2022-12-28 20:59:00+00:00,214.3081,3.4,12.65,47.84626,-54.09684
2022-12-28 21:09:00+00:00,209.7014,3.4,12.65,47.84626,-54.09684
2022-12-28 21:19:01+00:00,206.6098,3.4,12.65,47.84626,-54.09684
2022-12-28 21:29:01+00:00,211.7248,3.4,12.65,47.84626,-54.09684
2022-12-28 21:39:01+00:00,208.7631,3.4,12.65,47.84626,-54.09684
2022-12-28 21:49:01+00:00,209.6265,3.4,12.65,47.84626,-54.09684
2022-12-28 21:59:01+00:00,216.1331,3.4,12.65,47.84626,-54.09684
2022-12-28 22:09:01+00:00,221.5931,3.4,12.65,47.84626,-54.09684
2022-12-28 22:19:01+00:00,222.9832,3.4,12.65,47.84626,-54.09684
2022-12-28 22:29:01+00:00,227.0948,3.4,12.65,47.84626,-54.09684
2022-12-28 22:39:01+00:00,227.9848,3.4,12.65,47.84626,-54.09684
2022-12-28 22:49:01+00:00,228.3615,3.42,12.65,47.84626,-54.09684
2022-12-28 22:59:01+00:00,232.4347,3.42,12.65,47.84626,-54.09684
2022-12-28 23:09:01+00:00,235.0247,3.4,12.65,47.84626,-54.09684
2022-12-28 23:19:00+00:00,230.4481,3.5,12.57,47.84626,-54.09684
2022-12-28 23:29:00+00:00,231.3364,3.4,12.57,47.84626,-54.09684
2022-12-28 23:39:00+00:00,237.9665,3.4,12.57,47.84626,-54.09684
2022-12-28 23:49:00+00:00,234.4631,3.5,12.57,47.84626,-54.09684
2022-12-28 23:59:00+00:00,226.5981,3.5,12.57,47.84626,-54.09684
